Location: Palomar Mountain Lodge
(33.3110°N, 116.8495°W)
Time: 10:24:18
(UTC-07:00)

Cosmos 44 - Pass Details

Date: 12 July 2018
Orbit: 571 x 791 km, 65.1° (Epoch: 21 September)

Event Time Altitude Azimuth Distance (km) Brightness Sun altitude
Rises 20:52:33 0° 191° (SSW) 2,866 6.2 -10.5°
Reaches altitude 10° 20:54:49 10° 185° (S) 1,996 5.4 -10.9°
Maximum altitude 20:59:08 45° 113° (ESE) 892 3.4 -11.6°
Drops below altitude 10° 21:03:45 10° 41° (NE) 2,142 5.8 -12.4°
Sets 21:06:14 0° 35° (NE) 3,102 6.7 -12.8°
